Regional Weather Roundup
Issued by NWS Cleveland, OH

Home | Current Version | Previous Version | Text Only | Print | Product List | Glossary On
Versions: 1 2 3 4 5 6 7 8 9 10 11 12 13 14 15 16 17 18 19 20 21 22 23 24 25 26 27 28 29 30 31 32 33 34 35 36 37 38 39 40 41 42 43 44 45 46 47 48 49 50
000
ASUS41 KCLE 290012
RWRCLE
OHIO REGIONAL WEATHER ROUNDUP
NATIONAL WEATHER SERVICE WILMINGTON, OH
800 PM EDT WED JUN 28 2017

NOTE: "FAIR" INDICATES FEW OR NO CLOUDS BELOW 12,000 FEET WITH NO
SIGNIFICANT WEATHER AND/OR OBSTRUCTIONS TO VISIBILITY.

OHZ001>008-015>018-024>027-034-035-043-044-290100-
   NORTHWEST OHIO

CITY           SKY/WX    TMP DP  RH WIND       PRES   REMARKS
DEFIANCE       FAIR      75  51  43 S14       29.96S
FINDLAY        FAIR      76  51  41 S16G24    29.98F
TOLEDO EXPRESS PTSUNNY   74  52  46 S6        29.96S
TOLEDO EXEC    PTSUNNY   77  51  40 S14       29.98R
LIMA           FAIR      75  52  44 S13       30.00R
$$

OHZ009>014-019>023-028>033-038-089-290100-
   NORTHEAST OHIO

CITY           SKY/WX    TMP DP  RH WIND       PRES   REMARKS
CLE-HOPKINS    PTSUNNY   76  50  40 S12G22    30.03F
CLE-LAKEFRONT  FAIR      76  50  40 SE15      29.99F
CUY CO. ARPT   CLOUDY    75  52  43 MISG      30.02F
LORAIN-ELYRIA  FAIR      74  49  41 S12       30.01F
ASHTABULA      FAIR      71  51  49 S7        30.04F
AKRON-CANTON   MOCLDY    73  51  46 S12       30.07S
WOOSTER        FAIR      72  52  49 S10       30.06S
MANSFIELD      FAIR      73  51  46 S13       30.04F
YOUNGSTOWN     CLOUDY    71  52  50 S6        30.07S
$$

OHZ042-051>053-060>062-070>072-077>081-290100-
  SOUTHWEST OHIO

CITY           SKY/WX    TMP DP  RH WIND       PRES   REMARKS
CINC-COVINGTON PTSUNNY   76  58  53 S7        30.04R
CINC-LUNKEN    FAIR      75  57  53 S9        30.03S
HAMILTON       FAIR      79  55  43 S8        30.03R
DAYTON         PTSUNNY   75  52  44 S14       30.02F
WRIGHT-PAT AFB PTSUNNY   76  52  42 S14       30.01F
DAYTON GENERAL FAIR      75  53  46 S12       30.03R
WILMINGTON     FAIR      75  52  44 S13       30.05R
$$

OHZ036-037-039>041-045>050-054>059-063>069-073>076-082>088-290100-
  CENTRAL AND SOUTHEAST OHIO

CITY           SKY/WX    TMP DP  RH WIND       PRES   REMARKS
COLUMBUS       PTSUNNY   76  54  46 S13G20    30.05R
OSU AIRPORT    FAIR      76  54  46 S15       30.04S
BOLTON FIELD   FAIR      75  55  49 S12       30.05S
RICKENBACK AFB FAIR      75  54  49 S8        30.05R
NEWARK         FAIR      76  50  40 S7        30.05F
MARION         FAIR      74  51  44 S12       30.03S
LANCASTER      FAIR      73  55  53 S8        30.07S
ZANESVILLE     FAIR      73  55  53 S6        30.07F
NEW PHILLY     FAIR      73  54  51 S3        30.07F
$$




USA.gov is the U.S. government's official web portal to all federal, state and local government web resources and services.